SCP
0 0 0 0 0 0 -0 -0 -0 0 0 0 0 0 0 0 0 -0 0 0 0 0 0 0 0 0 0 0 0 0 0 0 0 0 0 0 0 0 0 0 0 0 0 0 0
0 0 0 0 0 0 0 0 0 0 0 0 0 0 0 0 0 0 0 0 0 0 0 0 0 0 0 0 0 0 0 0 0 0 0 0 0 0 0 0 0 0 0 0 0
0 0 0 0 0 0 0 0 0 0 0 0 0 0 0 0 0 0 0 0 0 0 0 0 0 0 0 0 0 0 0 0 0 0 0 0 0 0 0 0 0 0 0 0 1
0 0 0 0 0 0 0 0 0 0 0 0 0 0 0 0 0 0 0 0 0 0 0 0 0 0 0 0 0 0 0 0 0 0 0 0 0 0 0 0 0 0 0 0 0
0 0 0 0 0 0 0 0 0 0 0 0 0 0 0 0 0 0 0 0 0 0 0 0 0 0 0 0 0 0 0 0 0 0 0 0 0 0 0 0 0 0 0 0 0
0 0 0 0 0 0 0 0 0 0 0 0 0 0 0 0 0 0 0 0 0 0 0 0 0 0 0 0 0 0 0 0 0 0 0 0 0 0 0 0 0 0 0 0 0
0 0 0 0 0 0 0 0 0 0 0 0 0 0 0 0 0 0 0 0 0 -0 0 0 0 0 0 0 0 0 0 0 0 0 0 0 0 0 0 0 0 0 0 0 0
0 0 0 0 0 0 0 0 0 0 0 0 0 0 0 0 0 0 0 0 0 0 0 0 0 0 0 0 0 0 0 0 0 0 0 0 0 -0 -0 0 0 0 0 0 0
0 0 0 0 0 0 0 0 0 0 0 0 0 0 0 0 0 0 0 0 0 0 0 0 0 0 0 0 0 0 0 0 0 0 0 0 0 -0 -0 0 0 0 0 0 0
0 0 0 0 0 0 0 0 0 0 0 0 0 0 0 0 0 0 0 0 0 0 0 0 0 0 0 0 0 0 0 0 0 0 0 -0 0 0 0 0 0 0 0 0 0
0 0 0 0 0 0 0 0 0 0 0 0 0 0 0 0 0 0 0 0 0 0 0 0 0 0 0 0 0 0 0 0 0 0 0 -0 0 0 -0 0 0 -0 0 0 0
0 0 0 0 0 0 0 0 0 0 0 0 0 0 0 0 0 0 0 0 0 0 0 0 0 0 0 0 0 0 0 0 0 0 0 0 0 0 0 -0 -0 -0 0 0 0
0 0 0 0 0 0 0 0 0 0 0 -0 0 0 0 0 0 0 0 0 0 0 0 0 0 0 0 0 0 0 0 0 0 0 0 0 0 -0 0 0 -0 0 -0 0 -0
0 0 0 0 0 0 0 0 0 0 0 0 0 0 0 0 0 0 0 0 0 0 0 0 0 0 0 0 0 0 0 0 0 0 0 0 0 0 0 0 -0 -0 0 -0 -0
0 0 0 0 0 0 0 0 0 0 0 0 0 0 0 0 0 0 0 0 0 0 0 0 0 0 0 0 0 0 0 0 0 0 0 0 0 0 0 0 0 -0 -0 -0 0
0 0 0 0 0 0 0 0 0 0 0 0 0 0 0 0 0 0 0 0 0 0 0 0 0 0 0 0 0 0 0 0 0 0 0 0 0 0 0 0 0 0 0 0 0
0 0 0 0 0 0 0 0 0 0 0 0 0 0 0 0 0 0 0 0 0 0 0 0 0 0 0 0 0 0 0 0 0 0 0 0 0 0 0 0 0 0 0 0 0
0 0 0 0 0 -0 0 0 0 0 0 0 0 0 0 0 0 0 0 0 0 0 0 0 0 0 0 0 0 0 0 0 0 0 0 0 0 0 0 0 0 0 0 0 0
0 0 0 0 0 0 0 0 0 0 0 0 0 0 0 0 0 0 0 0 0 0 0 0 0 0 0 0 0 0 0 0 0 0 0 0 0 0 0 0 0 0 0 0 0
0 0 0 0 0 0 0 0 0 -0 -0 0 0 0 0 0 0 0 0 0 0 0 0 0 0 0 0 0 0 0 0 0 0 0 0 0 0 0 0 0 0 0 0 0 0
0 0 0 0 -0 0 0 0 0 0 -0 0 0 0 0 -0 0 0 0 0 0 -0 0 0 0 0 0 0 0 0 0 0 0 0 0 0 0 0 0 0 0 0 0 0 0
0 0 0 0 0 0 0 0 0 -0 0 0 -0 0 0 -0 -0 0 0 0 0 0 0 -0 0 0 0 0 0 0 0 0 0 0 0 0 0 0 0 0 0 0 0 0 0
0 0 0 0 0 0 0 0 0 0 0 0 0 0 0 -0 -0 -0 0 0 0 0 0 0 0 0 0 0 0 0 0 0 0 0 0 0 0 0 0 0 0 0 0 0 0
0 0 0 0 0 0 0 0 0 -0 -0 0 0 0 0 0 -0 -0 0 0 0 0 0 0 0 0 0 0 0 0 0 0 0 0 0 0 0 0 0 0 0 0 0 0 0
0 0 0 0 0 0 0 0 0 -0 0 0 -0 0 0 0 0 0 0 0 0 0 0 0 0 0 0 0 0 0 0 0 0 0 0 0 0 0 0 0 0 0 0 0 0
0 0 0 0 0 0 0 0 0 -0 0 0 -0 0 0 0 0 0 0 0 0 0 0 0 0 0 0 0 0 0 0 0 0 0 0 0 0 0 0 0 0 0 0 0 0
0 0 0 0 0 0 0 0 0 0 -0 0 0 0 0 0 0 0 0 0 0 0 0 0 0 0 0 0 0 0 0 0 0 0 0 0 0 0 0 0 0 0 0 0 0
Wind_Speed_500mb
29 30 30 32 34 35 35 36 36 35 37 38 34 33 36 36 39 44 47 28 19 34 22 15 33 30 25 26 26 26 21 31 39 32 28 18 25 27 21 25 28 10 19 11 10
33 34 36 37 37 38 39 39 38 38 37 37 39 37 35 38 42 52 50 38 26 22 31 28 36 38 33 32 24 33 27 36 27 17 16 26 31 29 24 27 28 25 9 9 20
36 37 38 39 39 41 39 39 39 39 39 41 40 39 34 32 31 16 14 24 37 27 27 25 29 39 35 30 36 28 33 25 16 28 31 35 38 27 42 39 33 22 5 4 20
37 38 38 37 38 40 41 40 40 40 43 44 43 38 32 16 12 7 10 21 39 37 30 26 35 37 31 27 37 22 33 31 25 22 26 32 36 40 41 45 43 18 16 16 13
39 38 38 39 38 39 39 40 42 45 46 46 43 36 22 20 36 26 7 22 38 36 35 35 37 35 30 32 21 31 30 26 34 36 37 40 44 40 41 38 46 45 37 26 21
42 41 41 42 42 42 42 41 46 46 50 44 35 28 18 30 21 22 30 26 30 34 33 31 26 31 23 22 31 18 30 29 29 37 40 40 47 48 48 36 54 50 51 44 34
44 43 43 43 45 45 45 47 48 48 40 32 26 22 26 45 16 19 27 28 31 34 30 32 18 30 18 15 16 17 23 29 35 39 36 33 39 49 52 45 47 56 50 47 45
46 46 45 46 47 49 48 49 50 41 27 21 18 20 23 19 37 26 30 28 27 28 25 34 25 28 26 8 19 23 18 24 16 28 30 30 35 37 52 55 51 61 53 48 38
47 48 47 46 51 51 51 49 48 25 17 11 16 20 17 23 39 43 35 26 31 23 25 25 30 27 23 26 22 20 22 24 11 19 16 27 32 35 39 50 53 55 56 55 44
49 49 51 50 54 54 57 50 27 8 3 17 11 15 31 23 24 42 49 31 36 33 28 30 26 21 25 24 26 24 25 19 18 9 12 29 42 38 25 43 51 53 58 53 43
51 50 53 56 55 59 57 36 5 11 27 29 17 17 2 18 26 41 56 45 33 42 27 40 26 34 38 34 21 8 13 20 20 13 19 28 33 38 30 31 40 50 48 52 58
58 58 54 60 55 57 43 12 14 16 29 47 59 59 32 19 27 41 63 40 42 37 32 23 38 36 23 26 24 23 25 28 25 14 10 23 29 27 20 30 33 46 47 43 45
65 65 60 62 57 38 22 25 22 24 21 42 55 56 49 47 35 56 71 55 43 45 43 38 22 31 28 24 25 28 30 27 25 17 25 23 31 26 21 28 41 47 48 42 46
62 65 61 56 27 22 42 15 18 12 14 24 15 21 41 33 38 49 74 65 33 46 43 39 28 21 32 31 28 29 28 30 31 25 18 15 22 21 19 25 33 46 44 47 50
67 67 58 53 58 31 13 9 9 1 15 13 14 9 21 49 19 64 66 67 41 35 39 35 35 38 29 31 30 27 24 28 33 30 28 27 18 8 10 16 33 26 38 41 40
69 66 61 60 36 48 26 22 7 15 24 10 14 22 27 48 29 53 62 67 56 37 38 42 27 32 41 36 32 21 17 20 25 26 26 31 15 16 9 3 13 21 25 17 13
65 64 66 52 31 15 16 15 15 22 6 23 10 18 33 30 35 39 53 54 40 44 39 38 41 28 24 28 29 25 22 18 22 25 24 8 16 21 14 10 6 20 21 16 16
65 64 50 36 25 27 10 22 36 27 51 14 16 21 31 35 39 42 49 46 50 44 27 33 34 44 33 37 35 34 30 24 28 26 27 21 16 12 13 0 3 10 24 27 28
72 49 30 11 11 19 29 27 39 45 33 21 19 27 17 25 31 41 45 48 51 46 35 35 41 27 41 34 37 24 26 32 33 7 16 18 15 8 12 10 16 23 30 34 36
66 50 23 20 11 27 20 44 46 49 43 17 32 11 22 31 13 34 46 45 46 51 39 18 26 25 38 34 23 31 24 18 20 29 30 30 21 12 23 19 21 26 34 38 36
40 27 15 10 19 22 21 32 36 56 60 37 35 31 4 9 16 21 31 17 46 52 47 28 15 21 26 33 36 17 25 19 14 20 18 24 14 11 5 15 23 27 38 38 36
25 13 6 8 9 14 19 24 28 33 38 46 36 36 29 20 12 14 41 30 13 45 54 46 20 23 36 12 10 17 35 35 19 26 20 21 10 13 5 12 22 31 32 33 29
27 33 11 11 10 10 26 33 25 30 35 17 33 21 26 33 14 19 27 12 5 25 48 29 21 27 22 16 9 21 19 18 10 8 23 19 18 7 6 13 24 29 29 29 26
17 10 13 14 15 16 27 26 25 15 29 30 24 22 12 14 20 24 21 10 12 7 12 43 17 27 22 3 1 28 18 23 25 20 25 29 19 15 16 19 19 26 27 29 24
12 8 14 12 24 32 28 29 26 18 9 10 9 25 20 4 18 12 15 11 3 12 4 12 21 14 11 10 9 15 24 30 30 31 29 28 15 13 18 18 27 29 27 25 21
15 10 22 23 35 31 24 24 20 16 9 5 9 23 24 17 18 4 2 23 9 2 8 5 14 21 26 28 26 30 31 20 22 18 16 18 17 7 3 12 18 23 23 21 20
29 29 16 18 16 27 20 19 31 26 2 16 1 13 11 17 17 18 7 31 26 29 21 19 22 28 21 19 18 26 33 30 28 23 22 27 22 16 12 18 20 20 20 18 13
Wind_Direction_500mb
337 333 330 327 325 322 320 318 316 314 313 310 305 301 302 302 300 291 270 248 260 230 210 182 180 187 190 200 206 217 234 237 237 227 245 241 228 240 248 253 248 256 271 303 188
327 326 324 321 318 316 313 310 308 307 305 303 302 300 300 306 307 288 277 261 229 222 202 177 182 183 193 204 203 210 226 239 253 276 248 248 235 239 231 238 236 236 270 276 189
324 324 322 320 317 314 311 308 306 303 300 299 297 296 296 311 307 275 266 243 201 194 182 186 186 184 208 205 208 220 245 235 239 241 255 257 255 245 252 246 243 244 212 263 213
326 325 323 322 320 317 314 310 306 301 298 295 293 289 286 296 279 291 302 207 178 172 176 177 180 194 210 206 213 239 228 247 242 247 246 251 259 253 239 255 239 223 263 277 242
330 329 325 323 321 320 315 310 307 302 297 294 288 278 272 244 249 264 236 169 170 177 181 180 190 204 215 212 211 231 246 233 246 253 254 261 259 260 252 252 251 253 261 264 249
334 329 325 322 319 319 315 311 307 303 298 289 279 258 224 246 247 243 233 206 191 189 198 199 207 206 232 212 209 191 238 242 236 241 246 252 258 256 248 243 254 252 254 254 242
331 329 325 321 317 315 316 314 311 307 299 280 262 217 232 233 238 220 208 204 198 203 213 209 211 193 185 187 211 222 238 229 229 235 236 244 253 257 256 246 249 250 246 250 245
330 327 325 320 318 314 314 315 316 308 296 273 215 202 244 245 226 203 180 184 196 197 206 203 203 208 220 146 192 219 230 243 215 204 222 215 258 246 244 232 234 245 235 240 243
331 330 327 320 317 316 312 312 315 304 293 225 174 205 257 231 221 199 184 178 166 170 182 176 186 210 191 210 204 202 242 209 216 195 224 203 258 259 243 232 235 244 232 233 237
331 330 326 324 318 318 314 315 306 290 94 144 217 231 234 222 195 187 190 172 161 160 152 174 193 203 215 207 215 199 215 217 239 161 225 225 248 270 239 231 231 234 225 223 237
331 330 327 324 323 320 316 321 272 235 216 212 215 234 294 174 161 174 174 169 177 177 182 185 193 203 202 214 255 235 233 254 257 269 257 266 258 266 249 232 231 226 207 221 227
330 331 331 324 324 318 313 257 290 314 289 257 250 243 244 212 186 174 168 169 173 186 179 174 217 203 215 204 227 227 241 250 258 265 290 281 271 266 240 226 224 212 215 208 222
330 332 331 325 328 321 320 296 278 301 274 279 246 236 225 217 213 175 182 188 188 195 191 200 210 210 207 204 220 229 243 251 259 289 283 267 258 240 223 212 211 225 226 220 238
325 326 327 324 336 304 309 285 310 264 276 268 194 249 205 205 225 196 191 190 195 203 195 225 178 187 202 214 216 235 232 248 267 264 272 194 278 186 191 213 218 217 214 226 232
321 324 325 322 307 297 286 274 350 246 279 69 158 187 182 192 193 200 194 199 208 202 204 208 210 210 206 207 211 250 263 255 249 249 259 227 244 140 174 220 211 221 227 223 216
319 320 321 316 287 298 273 271 243 230 248 254 166 188 173 207 206 179 188 204 217 214 210 229 194 218 223 221 232 250 228 239 245 243 236 240 238 226 169 274 176 194 203 207 206
319 319 314 303 276 281 233 197 218 236 201 249 215 193 206 188 194 175 187 196 199 203 205 214 220 215 225 204 201 209 230 218 215 221 237 199 214 273 114 123 76 151 147 166 165
326 324 321 302 271 217 204 221 237 228 223 235 296 259 235 196 206 188 189 196 209 204 198 208 207 212 199 219 207 207 221 237 215 220 220 155 221 234 117 88 128 125 136 143 148
331 329 318 318 300 202 203 220 229 240 244 228 259 245 197 284 229 194 197 205 198 203 213 204 223 183 209 205 219 203 219 247 273 312 273 183 196 194 159 158 155 147 147 148 149
331 322 310 303 253 179 217 241 250 248 259 221 253 278 241 191 260 250 200 203 201 206 210 194 212 194 191 215 213 250 226 206 229 246 228 241 221 268 178 181 162 160 156 151 143
332 317 313 343 124 202 243 247 252 251 266 248 252 254 188 161 210 247 223 188 208 196 206 211 245 170 168 201 196 185 211 234 254 224 244 253 232 60 43 169 173 164 157 155 156
324 296 270 277 254 225 259 288 292 276 251 243 250 269 263 190 168 264 257 194 290 199 200 209 222 195 198 96 318 246 217 200 217 211 237 252 258 102 96 161 173 159 160 163 157
309 298 290 236 279 335 320 309 293 288 281 273 261 273 273 226 203 199 295 31 343 203 196 172 206 206 202 191 188 224 207 239 262 280 220 227 248 75 124 177 186 166 156 151 141
297 306 291 262 310 316 324 311 321 263 257 273 271 269 224 213 198 180 188 327 6 189 24 188 170 211 212 122 163 213 224 219 227 232 238 246 241 152 150 169 164 160 157 140 144
274 273 325 308 324 320 306 295 311 321 264 292 282 270 200 114 211 173 153 285 294 9 94 202 187 197 191 254 250 271 272 234 235 249 253 252 224 256 173 187 171 162 159 151 149
297 334 338 297 304 300 299 309 326 348 293 260 312 293 189 187 164 159 91 174 220 214 11 322 167 168 192 210 211 218 236 225 220 238 239 253 249 227 237 234 169 181 173 169 151
314 315 293 294 310 309 314 327 321 318 335 16 77 344 117 103 111 124 197 267 169 157 171 189 165 175 170 184 202 235 236 227 241 233 249 244 243 247 181 228 190 174 175 162 158
Wind_Speed_850mb
29 30 30 32 34 35 35 36 36 35 37 38 34 33 36 36 39 44 47 28 19 34 22 15 33 30 25 26 26 26 21 31 39 32 28 18 25 27 21 25 28 10 19 11 10
33 34 36 37 37 38 39 39 38 38 37 37 39 37 35 38 42 52 50 38 26 22 31 28 36 38 33 32 24 33 27 36 27 17 16 26 31 29 24 27 28 25 9 9 20
36 37 38 39 39 41 39 39 39 39 39 41 40 39 34 32 31 16 14 24 37 27 27 25 29 39 35 30 36 28 33 25 16 28 31 35 38 27 42 39 33 22 5 4 20
37 38 38 37 38 40 41 40 40 40 43 44 43 38 32 16 12 7 10 21 39 37 30 26 35 37 31 27 37 22 33 31 25 22 26 32 36 40 41 45 43 18 16 16 13
39 38 38 39 38 39 39 40 42 45 46 46 43 36 22 20 36 26 7 22 38 36 35 35 37 35 30 32 21 31 30 26 34 36 37 40 44 40 41 38 46 45 37 26 21
42 41 41 42 42 42 42 41 46 46 50 44 35 28 18 30 21 22 30 26 30 34 33 31 26 31 23 22 31 18 30 29 29 37 40 40 47 48 48 36 54 50 51 44 34
44 43 43 43 45 45 45 47 48 48 40 32 26 22 26 45 16 19 27 28 31 34 30 32 18 30 18 15 16 17 23 29 35 39 36 33 39 49 52 45 47 56 50 47 45
46 46 45 46 47 49 48 49 50 41 27 21 18 20 23 19 37 26 30 28 27 28 25 34 25 28 26 8 19 23 18 24 16 28 30 30 35 37 52 55 51 61 53 48 38
47 48 47 46 51 51 51 49 48 25 17 11 16 20 17 23 39 43 35 26 31 23 25 25 30 27 23 26 22 20 22 24 11 19 16 27 32 35 39 50 53 55 56 55 44
49 49 51 50 54 54 57 50 27 8 3 17 11 15 31 23 24 42 49 31 36 33 28 30 26 21 25 24 26 24 25 19 18 9 12 29 42 38 25 43 51 53 58 53 43
51 50 53 56 55 59 57 36 5 11 27 29 17 17 2 18 26 41 56 45 33 42 27 40 26 34 38 34 21 8 13 20 20 13 19 28 33 38 30 31 40 50 48 52 58
58 58 54 60 55 57 43 12 14 16 29 47 59 59 32 19 27 41 63 40 42 37 32 23 38 36 23 26 24 23 25 28 25 14 10 23 29 27 20 30 33 46 47 43 45
65 65 60 62 57 38 22 25 22 24 21 42 55 56 49 47 35 56 71 55 43 45 43 38 22 31 28 24 25 28 30 27 25 17 25 23 31 26 21 28 41 47 48 42 46
62 65 61 56 27 22 42 15 18 12 14 24 15 21 41 33 38 49 74 65 33 46 43 39 28 21 32 31 28 29 28 30 31 25 18 15 22 21 19 25 33 46 44 47 50
67 67 58 53 58 31 13 9 9 1 15 13 14 9 21 49 19 64 66 67 41 35 39 35 35 38 29 31 30 27 24 28 33 30 28 27 18 8 10 16 33 26 38 41 40
69 66 61 60 36 48 26 22 7 15 24 10 14 22 27 48 29 53 62 67 56 37 38 42 27 32 41 36 32 21 17 20 25 26 26 31 15 16 9 3 13 21 25 17 13
65 64 66 52 31 15 16 15 15 22 6 23 10 18 33 30 35 39 53 54 40 44 39 38 41 28 24 28 29 25 22 18 22 25 24 8 16 21 14 10 6 20 21 16 16
65 64 50 36 25 27 10 22 36 27 51 14 16 21 31 35 39 42 49 46 50 44 27 33 34 44 33 37 35 34 30 24 28 26 27 21 16 12 13 0 3 10 24 27 28
72 49 30 11 11 19 29 27 39 45 33 21 19 27 17 25 31 41 45 48 51 46 35 35 41 27 41 34 37 24 26 32 33 7 16 18 15 8 12 10 16 23 30 34 36
66 50 23 20 11 27 20 44 46 49 43 17 32 11 22 31 13 34 46 45 46 51 39 18 26 25 38 34 23 31 24 18 20 29 30 30 21 12 23 19 21 26 34 38 36
40 27 15 10 19 22 21 32 36 56 60 37 35 31 4 9 16 21 31 17 46 52 47 28 15 21 26 33 36 17 25 19 14 20 18 24 14 11 5 15 23 27 38 38 36
25 13 6 8 9 14 19 24 28 33 38 46 36 36 29 20 12 14 41 30 13 45 54 46 20 23 36 12 10 17 35 35 19 26 20 21 10 13 5 12 22 31 32 33 29
27 33 11 11 10 10 26 33 25 30 35 17 33 21 26 33 14 19 27 12 5 25 48 29 21 27 22 16 9 21 19 18 10 8 23 19 18 7 6 13 24 29 29 29 26
17 10 13 14 15 16 27 26 25 15 29 30 24 22 12 14 20 24 21 10 12 7 12 43 17 27 22 3 1 28 18 23 25 20 25 29 19 15 16 19 19 26 27 29 24
12 8 14 12 24 32 28 29 26 18 9 10 9 25 20 4 18 12 15 11 3 12 4 12 21 14 11 10 9 15 24 30 30 31 29 28 15 13 18 18 27 29 27 25 21
15 10 22 23 35 31 24 24 20 16 9 5 9 23 24 17 18 4 2 23 9 2 8 5 14 21 26 28 26 30 31 20 22 18 16 18 17 7 3 12 18 23 23 21 20
29 29 16 18 16 27 20 19 31 26 2 16 1 13 11 17 17 18 7 31 26 29 21 19 22 28 21 19 18 26 33 30 28 23 22 27 22 16 12 18 20 20 20 18 13
Wind_Direction_850mb
337 333 330 327 325 322 320 318 316 314 313 310 305 301 302 302 300 291 270 248 260 230 210 182 180 187 190 200 206 217 234 237 237 227 245 241 228 240 248 253 248 256 271 303 188
327 326 324 321 318 316 313 310 308 307 305 303 302 300 300 306 307 288 277 261 229 222 202 177 182 183 193 204 203 210 226 239 253 276 248 248 235 239 231 238 236 236 270 276 189
324 324 322 320 317 314 311 308 306 303 300 299 297 296 296 311 307 275 266 243 201 194 182 186 186 184 208 205 208 220 245 235 239 241 255 257 255 245 252 246 243 244 212 263 213
326 325 323 322 320 317 314 310 306 301 298 295 293 289 286 296 279 291 302 207 178 172 176 177 180 194 210 206 213 239 228 247 242 247 246 251 259 253 239 255 239 223 263 277 242
330 329 325 323 321 320 315 310 307 302 297 294 288 278 272 244 249 264 236 169 170 177 181 180 190 204 215 212 211 231 246 233 246 253 254 261 259 260 252 252 251 253 261 264 249
334 329 325 322 319 319 315 311 307 303 298 289 279 258 224 246 247 243 233 206 191 189 198 199 207 206 232 212 209 191 238 242 236 241 246 252 258 256 248 243 254 252 254 254 242
331 329 325 321 317 315 316 314 311 307 299 280 262 217 232 233 238 220 208 204 198 203 213 209 211 193 185 187 211 222 238 229 229 235 236 244 253 257 256 246 249 250 246 250 245
330 327 325 320 318 314 314 315 316 308 296 273 215 202 244 245 226 203 180 184 196 197 206 203 203 208 220 146 192 219 230 243 215 204 222 215 258 246 244 232 234 245 235 240 243
331 330 327 320 317 316 312 312 315 304 293 225 174 205 257 231 221 199 184 178 166 170 182 176 186 210 191 210 204 202 242 209 216 195 224 203 258 259 243 232 235 244 232 233 237
331 330 326 324 318 318 314 315 306 290 94 144 217 231 234 222 195 187 190 172 161 160 152 174 193 203 215 207 215 199 215 217 239 161 225 225 248 270 239 231 231 234 225 223 237
331 330 327 324 323 320 316 321 272 235 216 212 215 234 294 174 161 174 174 169 177 177 182 185 193 203 202 214 255 235 233 254 257 269 257 266 258 266 249 232 231 226 207 221 227
330 331 331 324 324 318 313 257 290 314 289 257 250 243 244 212 186 174 168 169 173 186 179 174 217 203 215 204 227 227 241 250 258 265 290 281 271 266 240 226 224 212 215 208 222
330 332 331 325 328 321 320 296 278 301 274 279 246 236 225 217 213 175 182 188 188 195 191 200 210 210 207 204 220 229 243 251 259 289 283 267 258 240 223 212 211 225 226 220 238
325 326 327 324 336 304 309 285 310 264 276 268 194 249 205 205 225 196 191 190 195 203 195 225 178 187 202 214 216 235 232 248 267 264 272 194 278 186 191 213 218 217 214 226 232
321 324 325 322 307 297 286 274 350 246 279 69 158 187 182 192 193 200 194 199 208 202 204 208 210 210 206 207 211 250 263 255 249 249 259 227 244 140 174 220 211 221 227 223 216
319 320 321 316 287 298 273 271 243 230 248 254 166 188 173 207 206 179 188 204 217 214 210 229 194 218 223 221 232 250 228 239 245 243 236 240 238 226 169 274 176 194 203 207 206
319 319 314 303 276 281 233 197 218 236 201 249 215 193 206 188 194 175 187 196 199 203 205 214 220 215 225 204 201 209 230 218 215 221 237 199 214 273 114 123 76 151 147 166 165
326 324 321 302 271 217 204 221 237 228 223 235 296 259 235 196 206 188 189 196 209 204 198 208 207 212 199 219 207 207 221 237 215 220 220 155 221 234 117 88 128 125 136 143 148
331 329 318 318 300 202 203 220 229 240 244 228 259 245 197 284 229 194 197 205 198 203 213 204 223 183 209 205 219 203 219 247 273 312 273 183 196 194 159 158 155 147 147 148 149
331 322 310 303 253 179 217 241 250 248 259 221 253 278 241 191 260 250 200 203 201 206 210 194 212 194 191 215 213 250 226 206 229 246 228 241 221 268 178 181 162 160 156 151 143
332 317 313 343 124 202 243 247 252 251 266 248 252 254 188 161 210 247 223 188 208 196 206 211 245 170 168 201 196 185 211 234 254 224 244 253 232 60 43 169 173 164 157 155 156
324 296 270 277 254 225 259 288 292 276 251 243 250 269 263 190 168 264 257 194 290 199 200 209 222 195 198 96 318 246 217 200 217 211 237 252 258 102 96 161 173 159 160 163 157
309 298 290 236 279 335 320 309 293 288 281 273 261 273 273 226 203 199 295 31 343 203 196 172 206 206 202 191 188 224 207 239 262 280 220 227 248 75 124 177 186 166 156 151 141
297 306 291 262 310 316 324 311 321 263 257 273 271 269 224 213 198 180 188 327 6 189 24 188 170 211 212 122 163 213 224 219 227 232 238 246 241 152 150 169 164 160 157 140 144
274 273 325 308 324 320 306 295 311 321 264 292 282 270 200 114 211 173 153 285 294 9 94 202 187 197 191 254 250 271 272 234 235 249 253 252 224 256 173 187 171 162 159 151 149
297 334 338 297 304 300 299 309 326 348 293 260 312 293 189 187 164 159 91 174 220 214 11 322 167 168 192 210 211 218 236 225 220 238 239 253 249 227 237 234 169 181 173 169 151
314 315 293 294 310 309 314 327 321 318 335 16 77 344 117 103 111 124 197 267 169 157 171 189 165 175 170 184 202 235 236 227 241 233 249 244 243 247 181 228 190 174 175 162 158